Tracking 30115 objects as of 9-Feb-2025
HD Live streaming from Space Station
objects crossing your sky now

CZ-4 DEB

Track CZ-4 DEB now!
10-day predictions


NORAD ID: 20866
Int'l Code: 1990-081AE
Perigee: 821.9 km
Apogee: 921.8 km
Inclination: 98.9 °
Period: 102.2 minutes
Semi major axis: 7242 km
RCS: 0.0056 m2 (small)
Launch date: September 3, 1990
Source: People's Republic of China (PRC)
Launch site: Taiyaun Space Center, China (TSC)

Note: This is SATELLITE DEBRIS
Your satellite tracking list
Your tracking list is empty




NASA's NSSDC Master Catalog

Two Line Element Set (TLE):
1 20866U 90081AE  25040.17479041  .00001002  00000-0  59707-3 0  9998
2 20866  98.8865  20.5884 0068960 257.4863 114.0697 14.08441825758071
Source of the keplerian elements: AFSPC